Time,TemperatureF,DewpointF,PressureIn,WindDirection,WindDirectionDegrees,WindSpeedMPH,WindSpeedGustMPH,Humidity,HourlyPrecipIn,Conditions,Clouds,dailyrainin,SolarRadiationWatts/m^2,SoftwareType,DateUTC
2013-07-15 00:02:00,60.9,54.0,29.99,NNW,334,0.0,0.0,78,0.00,SCT,,0.00,0.0,WeatherDisplay:10.37,2013-07-14 22:02:00,
2013-07-15 00:07:00,60.7,54.1,29.99,NNW,334,0.0,0.0,79,0.00,SCT,,0.00,0.0,WeatherDisplay:10.37,2013-07-14 22:07:00,
2013-07-15 00:12:00,60.6,54.0,29.99,NNW,334,0.0,0.0,79,0.00,SCT,,0.00,0.0,WeatherDisplay:10.37,2013-07-14 22:12:00,
2013-07-15 00:17:00,60.4,53.9,30.00,NNW,334,0.0,0.0,79,0.00,SCT,,0.00,0.0,WeatherDisplay:10.37,2013-07-14 22:17:00,
2013-07-15 00:22:00,60.2,53.7,30.00,NNW,334,0.0,0.0,79,0.00,SCT,,0.00,0.0,WeatherDisplay:10.37,2013-07-14 22:22:00,
2013-07-15 00:27:00,60.1,53.9,30.00,NNW,334,0.0,0.0,80,0.00,SCT,,0.00,0.0,WeatherDisplay:10.37,2013-07-14 22:27:00,
2013-07-15 00:32:00,59.9,53.7,30.00,NNW,334,0.0,0.0,80,0.00,SCT,,0.00,0.0,WeatherDisplay:10.37,2013-07-14 22:32:00,
2013-07-15 00:37:00,59.8,53.6,30.00,NNW,334,0.0,0.0,80,0.00,SCT,,0.00,0.0,WeatherDisplay:10.37,2013-07-14 22:37:00,
2013-07-15 00:42:00,59.6,53.4,30.00,NNW,334,0.0,0.0,80,0.00,SCT,,0.00,0.0,WeatherDisplay:10.37,2013-07-14 22:42:00,
2013-07-15 00:47:00,59.4,53.6,30.00,NNW,334,0.0,0.0,81,0.00,SCT,,0.00,0.0,WeatherDisplay:10.37,2013-07-14 22:47:00,
2013-07-15 00:52:00,59.2,53.4,29.99,NNW,335,0.0,0.0,81,0.00,SCT,,0.00,0.0,WeatherDisplay:10.37,2013-07-14 22:52:00,
2013-07-15 00:57:00,59.1,53.3,29.99,NNW,334,0.0,0.0,81,0.00,SCT,,0.00,0.0,WeatherDisplay:10.37,2013-07-14 22:57:00,
2013-07-15 01:02:00,59.0,53.2,29.99,NNW,334,0.0,0.0,81,0.00,SCT,,0.00,0.0,WeatherDisplay:10.37,2013-07-14 23:02:00,
2013-07-15 01:07:00,58.8,53.3,29.99,NNW,334,0.0,0.0,82,0.00,SCT,,0.00,0.0,WeatherDisplay:10.37,2013-07-14 23:07:00,
2013-07-15 01:12:00,58.7,53.2,29.99,NNW,334,0.0,0.0,82,0.00,SCT,,0.00,0.0,WeatherDisplay:10.37,2013-07-14 23:12:00,
2013-07-15 01:17:00,58.6,53.1,29.99,NNW,334,0.0,0.0,82,0.00,SCT,,0.00,0.0,WeatherDisplay:10.37,2013-07-14 23:17:00,
2013-07-15 01:22:00,58.4,52.9,29.99,NNW,334,0.0,0.0,82,0.00,SCT,,0.00,0.0,WeatherDisplay:10.37,2013-07-14 23:22:00,
2013-07-15 01:27:00,58.3,53.2,29.99,NNW,334,0.0,0.0,83,0.00,SCT,,0.00,0.0,WeatherDisplay:10.37,2013-07-14 23:27:00,
2013-07-15 01:32:00,58.3,53.2,29.99,NNW,334,0.0,0.0,83,0.00,SCT,,0.00,0.0,WeatherDisplay:10.37,2013-07-14 23:32:00,
2013-07-15 01:38:00,58.2,53.1,29.99,NNW,334,0.0,0.0,83,0.00,SCT,,0.00,0.0,WeatherDisplay:10.37,2013-07-14 23:38:00,
2013-07-15 01:43:00,58.1,53.0,29.99,NNW,334,0.0,1.2,83,0.00,SCT,,0.00,0.0,WeatherDisplay:10.37,2013-07-14 23:43:00,
2013-07-15 01:48:00,58.1,53.3,29.99,NNW,334,0.0,0.0,84,0.00,SCT,,0.00,0.0,WeatherDisplay:10.37,2013-07-14 23:48:00,
2013-07-15 01:53:00,58.1,53.3,29.99,NNW,334,0.0,0.0,84,0.00,SCT,,0.00,0.0,WeatherDisplay:10.37,2013-07-14 23:53:00,
2013-07-15 01:58:00,58.1,53.3,29.99,NNW,334,0.0,0.0,84,0.00,SCT,,0.00,0.0,WeatherDisplay:10.37,2013-07-14 23:58:00,
2013-07-15 02:03:00,58.0,53.2,29.99,NNW,334,0.0,0.0,84,0.00,SCT,,0.00,0.0,WeatherDisplay:10.37,2013-07-15 00:03:00,
2013-07-15 02:08:00,57.9,53.1,29.99,NNW,334,0.0,0.0,84,0.00,SCT,,0.00,0.0,WeatherDisplay:10.37,2013-07-15 00:08:00,
2013-07-15 02:13:00,57.9,53.1,29.99,NNW,334,0.0,0.0,84,0.00,SCT,,0.00,0.0,WeatherDisplay:10.37,2013-07-15 00:13:00,
2013-07-15 02:18:00,57.8,53.0,29.99,NNW,334,0.0,0.0,84,0.00,SCT,,0.00,0.0,WeatherDisplay:10.37,2013-07-15 00:18:00,
2013-07-15 02:23:00,57.7,52.9,29.99,NNW,334,0.0,0.0,84,0.00,SCT,,0.00,0.0,WeatherDisplay:10.37,2013-07-15 00:23:00,
2013-07-15 02:28:00,57.7,52.9,29.99,NNW,334,0.0,0.0,84,0.00,SCT,,0.00,0.0,WeatherDisplay:10.37,2013-07-15 00:28:00,
2013-07-15 02:33:00,57.6,52.8,29.99,NNW,334,0.0,0.0,84,0.00,SCT,,0.00,0.0,WeatherDisplay:10.37,2013-07-15 00:33:00,
2013-07-15 02:38:00,57.4,52.9,29.98,NNW,334,0.0,0.0,85,0.00,SCT,,0.00,0.0,WeatherDisplay:10.37,2013-07-15 00:38:00,
2013-07-15 02:43:00,57.3,52.8,29.98,NNW,334,0.0,0.0,85,0.00,SCT,,0.00,0.0,WeatherDisplay:10.37,2013-07-15 00:43:00,
2013-07-15 02:48:00,57.2,52.7,29.98,NNW,334,0.0,0.0,85,0.00,SCT,,0.00,0.0,WeatherDisplay:10.37,2013-07-15 00:48:00,
2013-07-15 02:53:00,57.1,52.6,29.98,NNW,334,0.0,0.0,85,0.00,SCT,,0.00,0.0,WeatherDisplay:10.37,2013-07-15 00:53:00,
2013-07-15 02:58:00,57.0,52.5,29.98,NNW,334,0.1,1.0,85,0.00,SCT,,0.00,0.0,WeatherDisplay:10.37,2013-07-15 00:58:00,
2013-07-15 03:03:00,56.9,52.4,29.98,NNW,334,0.0,0.0,85,0.00,SCT,,0.00,0.0,WeatherDisplay:10.37,2013-07-15 01:03:00,
2013-07-15 03:08:00,56.9,52.8,29.98,NNW,334,0.0,0.0,86,0.00,SCT,,0.00,0.0,WeatherDisplay:10.37,2013-07-15 01:08:00,
2013-07-15 03:10:00,56.9,52.8,29.98,NNW,334,0.0,0.0,86,0.00,SCT,,0.00,0.0,WeatherDisplay:10.37,2013-07-15 01:10:00,
2013-07-15 03:15:00,56.8,52.7,29.98,NNW,334,0.0,0.0,86,0.00,SCT,,0.00,0.0,WeatherDisplay:10.37,2013-07-15 01:15:00,
2013-07-15 03:20:00,56.7,52.6,29.98,NNW,334,0.0,0.0,86,0.00,SCT,,0.00,0.0,WeatherDisplay:10.37,2013-07-15 01:20:00,
2013-07-15 03:25:00,56.6,52.5,29.98,NNW,334,0.0,0.0,86,0.00,SCT,,0.00,0.0,WeatherDisplay:10.37,2013-07-15 01:25:00,
2013-07-15 03:30:00,56.5,52.4,29.98,NNW,334,0.0,0.0,86,0.00,SCT,,0.00,0.0,WeatherDisplay:10.37,2013-07-15 01:30:00,
2013-07-15 03:35:00,56.4,51.9,29.98,NNW,334,0.0,0.0,85,0.00,SCT,,0.00,0.0,WeatherDisplay:10.37,2013-07-15 01:35:00,
2013-07-15 03:40:00,56.3,51.8,29.98,NNW,334,0.0,0.0,85,0.00,SCT,,0.00,0.0,WeatherDisplay:10.37,2013-07-15 01:40:00,
2013-07-15 03:45:00,56.3,52.2,29.98,NNW,334,0.0,0.0,86,0.00,SCT,,0.00,0.0,WeatherDisplay:10.37,2013-07-15 01:45:00,
2013-07-15 03:51:00,56.2,52.1,29.98,NNW,334,0.0,0.0,86,0.00,SCT,,0.00,0.0,WeatherDisplay:10.37,2013-07-15 01:51:00,
2013-07-15 03:56:00,56.1,52.0,29.98,NNW,334,0.0,0.0,86,0.00,SCT,,0.00,0.0,WeatherDisplay:10.37,2013-07-15 01:56:00,
2013-07-15 04:01:00,56.1,52.0,29.99,NNW,334,0.0,0.0,86,0.00,SCT,,0.00,0.0,WeatherDisplay:10.37,2013-07-15 02:01:00,
2013-07-15 04:06:00,56.1,52.0,29.99,NNW,334,0.0,0.0,86,0.00,SCT,,0.00,0.0,WeatherDisplay:10.37,2013-07-15 02:06:00,
2013-07-15 04:11:00,56.0,51.9,29.99,NNW,334,0.0,0.0,86,0.00,SCT,,0.00,0.0,WeatherDisplay:10.37,2013-07-15 02:11:00,
2013-07-15 04:16:00,56.0,51.9,29.99,NNW,334,0.0,0.0,86,0.00,SCT,,0.00,0.0,WeatherDisplay:10.37,2013-07-15 02:16:00,
2013-07-15 04:21:00,56.0,52.2,29.99,NNW,334,0.0,0.0,87,0.00,SCT,,0.00,0.0,WeatherDisplay:10.37,2013-07-15 02:21:00,
2013-07-15 04:26:00,55.9,52.1,29.99,NNW,334,0.0,0.0,87,0.00,SCT,,0.00,0.0,WeatherDisplay:10.37,2013-07-15 02:26:00,
2013-07-15 04:31:00,55.9,52.1,29.99,NNW,334,0.0,0.0,87,0.00,SCT,,0.00,0.0,WeatherDisplay:10.37,2013-07-15 02:31:00,
2013-07-15 04:36:00,55.9,52.1,29.99,NNW,334,0.0,0.0,87,0.00,SCT,,0.00,0.0,WeatherDisplay:10.37,2013-07-15 02:36:00,
2013-07-15 04:41:00,55.9,52.1,29.99,NNW,334,0.0,0.0,87,0.00,SCT,,0.00,0.0,WeatherDisplay:10.37,2013-07-15 02:41:00,
2013-07-15 04:46:00,55.9,52.1,29.99,NNW,334,0.0,0.0,87,0.00,SCT,,0.00,0.0,WeatherDisplay:10.37,2013-07-15 02:46:00,
2013-07-15 04:51:00,55.8,52.0,29.99,NNW,334,0.0,0.0,87,0.00,SCT,,0.00,0.0,WeatherDisplay:10.37,2013-07-15 02:51:00,
2013-07-15 04:56:00,55.8,52.0,29.99,NNW,335,0.0,0.0,87,0.00,SCT,,0.00,0.0,WeatherDisplay:10.37,2013-07-15 02:56:00,
2013-07-15 05:01:00,55.7,51.9,29.99,NNW,334,0.0,0.0,87,0.00,SCT,,0.00,0.0,WeatherDisplay:10.37,2013-07-15 03:01:00,
2013-07-15 05:06:00,55.6,51.8,29.99,NNW,334,0.0,0.0,87,0.00,SCT,,0.00,0.0,WeatherDisplay:10.37,2013-07-15 03:06:00,
2013-07-15 05:11:00,55.5,51.7,29.99,NNW,334,0.0,0.0,87,0.00,SCT,,0.00,5.0,WeatherDisplay:10.37,2013-07-15 03:11:00,
2013-07-15 05:16:00,55.5,51.7,29.99,NNW,334,0.0,0.0,87,0.00,SCT,,0.00,9.0,WeatherDisplay:10.37,2013-07-15 03:16:00,
2013-07-15 05:21:00,55.5,52.0,29.99,NNW,334,0.0,0.0,88,0.00,SCT,,0.00,11.0,WeatherDisplay:10.37,2013-07-15 03:21:00,
2013-07-15 05:26:00,55.6,52.1,29.99,NNW,334,0.0,0.0,88,0.00,SCT,,0.00,12.0,WeatherDisplay:10.37,2013-07-15 03:26:00,
2013-07-15 05:31:00,55.6,52.1,29.99,NNW,334,0.0,0.0,88,0.00,SCT,,0.00,18.0,WeatherDisplay:10.37,2013-07-15 03:31:00,
2013-07-15 05:36:00,55.7,52.2,29.98,NNW,334,0.0,0.0,88,0.00,SCT,,0.00,19.0,WeatherDisplay:10.37,2013-07-15 03:36:00,
2013-07-15 05:41:00,55.8,52.3,29.98,NNW,334,0.0,0.0,88,0.00,SCT,,0.00,21.0,WeatherDisplay:10.37,2013-07-15 03:41:00,
2013-07-15 05:46:00,55.9,52.4,29.98,NNW,334,0.0,0.0,88,0.00,SCT,,0.00,23.0,WeatherDisplay:10.37,2013-07-15 03:46:00,
2013-07-15 05:51:00,56.0,52.8,29.99,NNW,334,0.0,0.0,89,0.00,SCT,,0.00,28.0,WeatherDisplay:10.37,2013-07-15 03:51:00,
2013-07-15 05:56:00,56.2,53.0,29.99,NNW,334,0.0,0.0,89,0.00,SCT,,0.00,33.0,WeatherDisplay:10.37,2013-07-15 03:56:00,
2013-07-15 06:01:00,56.3,53.1,29.98,NNW,334,0.0,1.0,89,0.00,BKN,,0.00,42.0,WeatherDisplay:10.37,2013-07-15 04:01:00,
2013-07-15 06:02:00,56.4,53.2,29.98,NNW,334,0.0,1.2,89,0.00,BKN,,0.00,42.0,WeatherDisplay:10.37,2013-07-15 04:02:00,
2013-07-15 06:03:00,56.4,53.2,29.98,NNW,334,0.0,0.0,89,0.00,BKN,,0.00,44.0,WeatherDisplay:10.37,2013-07-15 04:03:00,
2013-07-15 06:05:00,56.4,53.2,29.98,NNW,334,0.0,1.0,89,0.00,BKN,,0.00,47.0,WeatherDisplay:10.37,2013-07-15 04:05:00,
2013-07-15 06:10:00,56.6,53.4,29.99,NNW,334,0.0,1.0,89,0.00,BKN,,0.00,54.0,WeatherDisplay:10.37,2013-07-15 04:10:00,
2013-07-15 06:15:00,56.8,53.6,29.99,NNW,334,0.0,0.0,89,0.00,BKN,,0.00,58.0,WeatherDisplay:10.37,2013-07-15 04:15:00,
2013-07-15 06:20:00,57.0,53.8,29.99,NNW,334,0.0,0.0,89,0.00,SCT,,0.00,63.0,WeatherDisplay:10.37,2013-07-15 04:20:00,
2013-07-15 06:25:00,57.2,54.0,29.99,NNW,334,0.0,0.0,89,0.00,SCT,,0.00,65.0,WeatherDisplay:10.37,2013-07-15 04:25:00,
2013-07-15 06:30:00,57.4,54.2,29.99,NNW,334,0.0,0.0,89,0.00,BKN,,0.00,63.0,WeatherDisplay:10.37,2013-07-15 04:30:00,
2013-07-15 06:35:00,57.7,54.5,29.99,NNW,334,0.0,0.0,89,0.00,BKN,,0.00,65.0,WeatherDisplay:10.37,2013-07-15 04:35:00,
2013-07-15 06:40:00,58.0,54.8,29.99,NNW,334,0.0,0.0,89,0.00,BKN,,0.00,67.0,WeatherDisplay:10.37,2013-07-15 04:40:00,
2013-07-15 06:45:00,58.4,55.2,29.99,NNW,334,0.0,0.0,89,0.00,BKN,,0.00,65.0,WeatherDisplay:10.37,2013-07-15 04:45:00,
2013-07-15 06:50:00,58.7,55.5,29.99,NNW,334,0.0,0.0,89,0.00,BKN,,0.00,72.0,WeatherDisplay:10.37,2013-07-15 04:50:00,
2013-07-15 06:56:00,59.1,55.5,30.00,NNW,335,0.0,0.0,88,0.00,BKN,,0.00,79.0,WeatherDisplay:10.37,2013-07-15 04:56:00,
2013-07-15 07:01:00,59.4,55.8,30.00,NNW,334,0.0,0.0,88,0.00,BKN,,0.00,79.0,WeatherDisplay:10.37,2013-07-15 05:01:00,
2013-07-15 07:06:00,59.7,55.8,30.00,NNW,335,0.0,0.0,87,0.00,BKN,,0.00,83.0,WeatherDisplay:10.37,2013-07-15 05:06:00,
2013-07-15 07:11:00,60.0,56.1,30.00,NNW,334,0.0,0.0,87,0.00,BKN,,0.00,90.0,WeatherDisplay:10.37,2013-07-15 05:11:00,
2013-07-15 07:16:00,60.3,56.1,29.99,NNW,334,0.0,0.0,86,0.00,BKN,,0.00,98.0,WeatherDisplay:10.37,2013-07-15 05:16:00,
2013-07-15 07:21:00,60.6,56.1,29.99,NNW,334,0.0,0.0,85,0.00,BKN,,0.00,104.0,WeatherDisplay:10.37,2013-07-15 05:21:00,
2013-07-15 07:26:00,61.0,56.5,29.99,NNW,334,0.0,0.0,85,0.00,BKN,,0.00,109.0,WeatherDisplay:10.37,2013-07-15 05:26:00,
2013-07-15 07:31:00,61.3,56.4,29.99,NNW,334,0.5,1.2,84,0.00,BKN,,0.00,118.0,WeatherDisplay:10.37,2013-07-15 05:31:00,
2013-07-15 07:36:00,61.7,56.5,29.99,NNW,334,0.4,2.3,83,0.00,BKN,,0.00,125.0,WeatherDisplay:10.37,2013-07-15 05:36:00,
2013-07-15 07:41:00,62.0,56.4,29.99,NNW,334,0.0,2.3,82,0.00,BKN,,0.00,120.0,WeatherDisplay:10.37,2013-07-15 05:41:00,
2013-07-15 07:46:00,62.4,56.8,29.99,NNW,334,0.0,0.0,82,0.00,BKN,,0.00,118.0,WeatherDisplay:10.37,2013-07-15 05:46:00,
2013-07-15 07:51:00,62.7,57.1,29.99,NNW,334,0.0,0.0,82,0.00,BKN,,0.00,128.0,WeatherDisplay:10.37,2013-07-15 05:51:00,
2013-07-15 07:56:00,63.1,57.5,29.99,NNW,334,0.0,0.0,82,0.00,BKN,,0.00,127.0,WeatherDisplay:10.37,2013-07-15 05:56:00,
2013-07-15 08:01:00,63.5,57.9,29.99,NNW,334,0.0,0.0,82,0.00,BKN,,0.00,121.0,WeatherDisplay:10.37,2013-07-15 06:01:00,
2013-07-15 08:06:00,63.8,57.9,29.99,NNW,334,0.0,0.0,81,0.00,BKN,,0.00,97.0,WeatherDisplay:10.37,2013-07-15 06:06:00,
2013-07-15 08:11:00,64.0,57.7,29.99,NNW,334,0.0,0.0,80,0.00,BKN,,0.00,98.0,WeatherDisplay:10.37,2013-07-15 06:11:00,
2013-07-15 08:16:00,64.3,57.6,29.99,NNW,334,0.0,0.0,79,0.00,BKN,,0.00,139.0,WeatherDisplay:10.37,2013-07-15 06:16:00,
2013-07-15 08:21:00,64.6,57.6,29.99,NNW,346,0.2,3.5,78,0.00,BKN,,0.00,135.0,WeatherDisplay:10.37,2013-07-15 06:21:00,
2013-07-15 08:26:00,64.8,57.4,29.99,North,355,0.5,2.0,77,0.00,BKN,,0.00,123.0,WeatherDisplay:10.37,2013-07-15 06:26:00,
2013-07-15 08:31:00,65.1,57.3,29.99,North,355,1.1,3.5,76,0.00,BKN,,0.00,174.0,WeatherDisplay:10.37,2013-07-15 06:31:00,
2013-07-15 08:36:00,65.4,56.9,29.99,NW,313,0.3,2.3,74,0.00,BKN,,0.00,188.0,WeatherDisplay:10.37,2013-07-15 06:36:00,
2013-07-15 08:41:00,65.8,57.3,29.99,NW,313,0.9,2.3,74,0.00,BKN,,0.00,213.0,WeatherDisplay:10.37,2013-07-15 06:41:00,
2013-07-15 08:46:00,66.2,57.3,29.99,NW,313,0.2,2.3,73,0.00,BKN,,0.00,239.0,WeatherDisplay:10.37,2013-07-15 06:46:00,
2013-07-15 08:51:00,66.5,57.2,29.99,NW,311,1.1,3.5,72,0.00,SCT,,0.00,216.0,WeatherDisplay:10.37,2013-07-15 06:51:00,
2013-07-15 08:56:00,66.8,57.5,29.99,NW,311,0.0,1.2,72,0.00,BKN,,0.00,190.0,WeatherDisplay:10.37,2013-07-15 06:56:00,
2013-07-15 09:01:00,67.0,57.3,29.99,NW,311,0.6,2.3,71,0.00,BKN,,0.00,186.0,WeatherDisplay:10.37,2013-07-15 07:01:00,
2013-07-15 09:06:00,67.2,57.5,29.99,NW,311,0.1,1.2,71,0.00,BKN,,0.00,188.0,WeatherDisplay:10.37,2013-07-15 07:06:00,
2013-07-15 09:11:00,67.5,57.8,29.99,NW,311,0.4,2.3,71,0.00,BKN,,0.00,193.0,WeatherDisplay:10.37,2013-07-15 07:11:00,
2013-07-15 09:16:00,67.7,58.0,29.99,NW,311,0.8,2.0,71,0.00,BKN,,0.00,211.0,WeatherDisplay:10.37,2013-07-15 07:16:00,
2013-07-15 09:21:00,67.8,57.7,29.99,West,277,1.0,3.0,70,0.00,BKN,,0.00,204.0,WeatherDisplay:10.37,2013-07-15 07:21:00,
2013-07-15 09:26:00,68.0,58.2,29.99,NW,309,0.2,2.0,71,0.00,BKN,,0.00,179.0,WeatherDisplay:10.37,2013-07-15 07:26:00,
2013-07-15 09:31:00,68.2,58.0,29.99,NW,309,1.4,3.0,70,0.00,BKN,,0.00,195.0,WeatherDisplay:10.37,2013-07-15 07:31:00,
2013-07-15 09:36:00,68.3,58.1,29.99,NNW,327,3.1,5.0,70,0.00,BKN,,0.00,200.0,WeatherDisplay:10.37,2013-07-15 07:36:00,
2013-07-15 09:41:00,68.4,57.8,29.99,NNW,338,1.4,4.6,69,0.00,BKN,,0.00,223.0,WeatherDisplay:10.37,2013-07-15 07:41:00,
2013-07-15 09:46:00,68.6,58.0,29.99,NNW,343,1.3,4.6,69,0.00,BKN,,0.00,197.0,WeatherDisplay:10.37,2013-07-15 07:46:00,
2013-07-15 09:51:00,68.8,58.2,29.99,WNW,288,1.4,3.5,69,0.00,BKN,,0.00,192.0,WeatherDisplay:10.37,2013-07-15 07:51:00,
2013-07-15 09:56:00,68.9,58.3,29.99,WNW,284,2.1,4.6,69,0.00,BKN,,0.00,204.0,WeatherDisplay:10.37,2013-07-15 07:56:00,
2013-07-15 10:01:00,69.3,58.7,29.99,WNW,289,2.2,4.6,69,0.00,BKN,,0.00,230.0,WeatherDisplay:10.37,2013-07-15 08:01:00,
2013-07-15 10:06:00,69.7,59.1,29.99,WNW,290,2.3,3.5,69,0.00,BKN,,0.00,288.0,WeatherDisplay:10.37,2013-07-15 08:06:00,
2013-07-15 10:11:00,70.0,58.5,29.99,NW,319,0.3,3.5,67,0.00,BKN,,0.00,287.0,WeatherDisplay:10.37,2013-07-15 08:11:00,
2013-07-15 10:16:00,70.3,58.8,29.99,NW,323,0.8,3.0,67,0.00,BKN,,0.00,253.0,WeatherDisplay:10.37,2013-07-15 08:16:00,
2013-07-15 10:21:00,70.5,58.6,29.99,WNW,296,2.0,9.2,66,0.00,BKN,,0.00,281.0,WeatherDisplay:10.37,2013-07-15 08:21:00,
2013-07-15 10:26:00,70.6,58.3,29.99,WNW,303,4.0,6.0,65,0.00,BKN,,0.00,264.0,WeatherDisplay:10.37,2013-07-15 08:26:00,
2013-07-15 10:31:00,70.8,58.0,29.99,NW,323,6.6,11.0,64,0.00,BKN,,0.00,283.0,WeatherDisplay:10.37,2013-07-15 08:31:00,
2013-07-15 10:36:00,70.9,58.1,29.99,NNW,330,5.9,12.0,64,0.00,BKN,,0.00,334.0,WeatherDisplay:10.37,2013-07-15 08:36:00,
2013-07-15 10:41:00,70.9,57.7,29.99,WNW,289,5.4,11.5,63,0.00,BKN,,0.00,338.0,WeatherDisplay:10.37,2013-07-15 08:41:00,
2013-07-15 10:46:00,71.1,58.3,29.99,WSW,242,4.2,8.1,64,0.00,BKN,,0.00,334.0,WeatherDisplay:10.37,2013-07-15 08:46:00,
2013-07-15 10:51:00,71.3,58.1,30.00,NNW,330,7.3,12.7,63,0.00,SCT,,0.00,476.0,WeatherDisplay:10.37,2013-07-15 08:51:00,
2013-07-15 10:56:00,71.4,57.7,30.00,NNW,344,4.6,8.1,62,0.00,BKN,,0.00,174.0,WeatherDisplay:10.37,2013-07-15 08:56:00,
2013-07-15 11:01:00,71.2,57.5,30.00,North,355,5.7,10.0,62,0.00,BKN,,0.00,186.0,WeatherDisplay:10.37,2013-07-15 09:01:00,
2013-07-15 11:06:00,71.1,58.3,30.00,North,355,4.8,9.0,64,0.00,BKN,,0.00,290.0,WeatherDisplay:10.37,2013-07-15 09:06:00,
2013-07-15 11:11:00,71.1,58.3,30.00,NW,321,2.5,5.8,64,0.00,BKN,,0.00,441.0,WeatherDisplay:10.37,2013-07-15 09:11:00,
2013-07-15 11:16:00,71.7,58.0,30.00,NNW,329,4.6,9.2,62,0.00,SCT,,0.00,381.0,WeatherDisplay:10.37,2013-07-15 09:16:00,
2013-07-15 11:21:00,72.0,58.7,30.00,WNW,300,2.6,9.2,63,0.00,SCT,,0.00,366.0,WeatherDisplay:10.37,2013-07-15 09:21:00,
2013-07-15 11:26:00,72.1,57.9,30.00,NNW,335,4.8,9.0,61,0.00,BKN,,0.00,332.0,WeatherDisplay:10.37,2013-07-15 09:26:00,
2013-07-15 11:31:00,72.2,57.5,30.00,NW,323,4.9,11.5,60,0.00,BKN,,0.00,501.0,WeatherDisplay:10.37,2013-07-15 09:31:00,
2013-07-15 11:36:00,72.6,58.4,30.00,NW,319,4.4,8.1,61,0.00,SCT,,0.00,628.0,WeatherDisplay:10.37,2013-07-15 09:36:00,
2013-07-15 11:41:00,73.1,58.4,30.00,West,281,5.7,8.1,60,0.00,SCT,,0.00,615.0,WeatherDisplay:10.37,2013-07-15 09:41:00,
2013-07-15 11:46:00,73.3,58.1,30.00,WNW,303,6.1,10.4,59,0.00,SCT,,0.00,524.0,WeatherDisplay:10.37,2013-07-15 09:46:00,
2013-07-15 11:51:00,73.7,58.5,30.00,WNW,290,2.8,8.1,59,0.00,SCT,,0.00,543.0,WeatherDisplay:10.37,2013-07-15 09:51:00,
2013-07-15 11:56:00,73.5,58.3,30.00,WNW,302,3.4,9.0,59,0.00,SCT,,0.00,413.0,WeatherDisplay:10.37,2013-07-15 09:56:00,
2013-07-15 12:01:00,73.4,57.2,30.00,WSW,253,7.0,12.0,57,0.00,SCT,,0.00,438.0,WeatherDisplay:10.37,2013-07-15 10:01:00,
2013-07-15 12:06:00,73.8,57.6,30.00,WNW,292,4.9,10.4,57,0.00,SCT,,0.00,911.0,WeatherDisplay:10.37,2013-07-15 10:06:00,
2013-07-15 12:11:00,74.4,56.7,30.00,West,264,5.9,12.7,54,0.00,FEW,,0.00,905.0,WeatherDisplay:10.37,2013-07-15 10:11:00,
2013-07-15 12:16:00,74.5,56.8,30.00,West,271,5.6,17.3,54,0.00,CLR,,0.00,888.0,WeatherDisplay:10.37,2013-07-15 10:16:00,
2013-07-15 12:21:00,74.8,57.0,30.00,WNW,296,5.0,11.5,54,0.00,CLR,,0.00,837.0,WeatherDisplay:10.37,2013-07-15 10:21:00,
2013-07-15 12:26:00,75.1,57.3,29.99,NW,310,4.7,10.4,54,0.00,CLR,,0.00,830.0,WeatherDisplay:10.37,2013-07-15 10:26:00,
2013-07-15 12:31:00,75.3,57.5,30.00,NW,326,5.0,12.0,54,0.00,CLR,,0.00,830.0,WeatherDisplay:10.37,2013-07-15 10:31:00,
2013-07-15 12:36:00,75.5,57.2,29.99,NW,320,5.6,11.5,53,0.00,CLR,,0.00,896.0,WeatherDisplay:10.37,2013-07-15 10:36:00,
2013-07-15 12:41:00,75.9,58.6,29.99,WNW,300,4.6,9.2,55,0.00,CLR,,0.00,909.0,WeatherDisplay:10.37,2013-07-15 10:41:00,
2013-07-15 12:46:00,75.6,57.3,29.99,NNW,347,7.3,12.0,53,0.00,CLR,,0.00,380.0,WeatherDisplay:10.37,2013-07-15 10:46:00,
2013-07-15 12:51:00,75.5,57.2,29.99,WNW,282,3.1,10.4,53,0.00,CLR,,0.00,1000.0,WeatherDisplay:10.37,2013-07-15 10:51:00,
2013-07-15 12:56:00,75.8,57.4,29.99,WNW,282,9.2,14.0,53,0.00,CLR,,0.00,397.0,WeatherDisplay:10.37,2013-07-15 10:56:00,
2013-07-15 13:01:00,75.2,57.9,29.99,NNW,344,5.4,13.8,55,0.00,SCT,,0.00,308.0,WeatherDisplay:10.37,2013-07-15 11:01:00,
2013-07-15 13:06:00,74.8,57.0,29.98,NW,312,3.3,11.5,54,0.00,BKN,,0.00,288.0,WeatherDisplay:10.37,2013-07-15 11:06:00,
2013-07-15 13:11:00,75.0,57.7,29.98,West,272,6.0,12.7,55,0.00,SCT,,0.00,278.0,WeatherDisplay:10.37,2013-07-15 11:11:00,
2013-07-15 13:16:00,75.0,56.7,29.98,West,279,8.0,17.3,53,0.00,SCT,,0.00,299.0,WeatherDisplay:10.37,2013-07-15 11:16:00,
2013-07-15 13:21:00,75.5,56.6,29.98,NW,312,5.3,19.6,52,0.00,SCT,,0.00,851.0,WeatherDisplay:10.37,2013-07-15 11:21:00,
2013-07-15 13:26:00,75.9,56.5,29.98,SSW,196,5.1,11.5,51,0.00,CLR,,0.00,902.0,WeatherDisplay:10.37,2013-07-15 11:26:00,
2013-07-15 13:31:00,76.4,55.3,29.97,NNW,347,9.1,17.3,48,0.00,CLR,,0.00,803.0,WeatherDisplay:10.37,2013-07-15 11:31:00,
2013-07-15 13:36:00,76.4,55.3,29.98,West,272,7.6,14.0,48,0.00,CLR,,0.00,851.0,WeatherDisplay:10.37,2013-07-15 11:36:00,
2013-07-15 13:41:00,76.7,54.4,29.98,West,272,8.5,17.3,46,0.00,CLR,,0.00,854.0,WeatherDisplay:10.37,2013-07-15 11:41:00,
2013-07-15 13:46:00,76.5,54.2,29.97,WSW,258,5.4,12.7,46,0.00,CLR,,0.00,809.0,WeatherDisplay:10.37,2013-07-15 11:46:00,
2013-07-15 13:51:00,76.8,54.5,29.98,West,259,6.3,18.4,46,0.00,CLR,,0.00,800.0,WeatherDisplay:10.37,2013-07-15 11:51:00,
2013-07-15 13:56:00,77.1,55.3,29.97,West,266,6.0,11.5,47,0.00,CLR,,0.00,823.0,WeatherDisplay:10.37,2013-07-15 11:56:00,
2013-07-15 14:01:00,77.2,54.2,29.97,NW,311,6.5,15.0,45,0.00,CLR,,0.00,823.0,WeatherDisplay:10.37,2013-07-15 12:01:00,
2013-07-15 14:06:00,77.3,54.9,29.97,North,9,5.4,9.0,46,0.00,CLR,,0.00,831.0,WeatherDisplay:10.37,2013-07-15 12:06:00,
2013-07-15 14:11:00,77.2,54.2,29.97,WNW,287,9.3,16.1,45,0.00,CLR,,0.00,842.0,WeatherDisplay:10.37,2013-07-15 12:11:00,
2013-07-15 14:16:00,77.6,55.2,29.97,West,268,5.2,9.2,46,0.00,CLR,,0.00,882.0,WeatherDisplay:10.37,2013-07-15 12:16:00,
2013-07-15 14:21:00,77.6,53.3,29.97,West,279,6.8,16.1,43,0.00,CLR,,0.00,807.0,WeatherDisplay:10.37,2013-07-15 12:21:00,
2013-07-15 14:26:00,77.2,53.6,29.97,NW,311,6.1,15.0,44,0.00,FEW,,0.00,301.0,WeatherDisplay:10.37,2013-07-15 12:26:00,
2013-07-15 14:31:00,76.8,52.6,29.96,NNW,339,8.3,16.1,43,0.00,SCT,,0.00,772.0,WeatherDisplay:10.37,2013-07-15 12:31:00,
2013-07-15 14:36:00,76.8,52.6,29.96,NW,310,5.8,21.0,43,0.00,SCT,,0.00,420.0,WeatherDisplay:10.37,2013-07-15 12:36:00,
2013-07-15 14:41:00,76.7,51.9,29.97,NW,321,6.4,18.4,42,0.00,FEW,,0.00,766.0,WeatherDisplay:10.37,2013-07-15 12:41:00,
2013-07-15 14:46:00,76.4,51.6,29.96,WNW,301,7.5,11.5,42,0.00,FEW,,0.00,751.0,WeatherDisplay:10.37,2013-07-15 12:46:00,
2013-07-15 14:51:00,76.3,52.2,29.96,WNW,303,5.2,11.5,43,0.00,SCT,,0.00,206.0,WeatherDisplay:10.37,2013-07-15 12:51:00,
2013-07-15 14:56:00,76.2,51.4,29.96,North,351,6.8,12.0,42,0.00,BKN,,0.00,738.0,WeatherDisplay:10.37,2013-07-15 12:56:00,
2013-07-15 15:01:00,76.2,50.8,29.96,West,281,6.5,12.7,41,0.00,BKN,,0.00,142.0,WeatherDisplay:10.37,2013-07-15 13:01:00,
2013-07-15 15:06:00,76.1,50.0,29.96,WNW,284,3.6,11.5,40,0.00,SCT,,0.00,701.0,WeatherDisplay:10.37,2013-07-15 13:06:00,
2013-07-15 15:11:00,76.6,51.1,29.96,WNW,289,4.2,11.5,41,0.00,FEW,,0.00,670.0,WeatherDisplay:10.37,2013-07-15 13:11:00,
2013-07-15 15:16:00,77.2,49.6,29.96,NW,321,6.4,19.6,38,0.00,CLR,,0.00,673.0,WeatherDisplay:10.37,2013-07-15 13:16:00,
2013-07-15 15:21:00,77.6,50.7,29.96,WNW,300,6.1,13.0,39,0.00,CLR,,0.00,659.0,WeatherDisplay:10.37,2013-07-15 13:21:00,
2013-07-15 15:26:00,77.6,50.0,29.96,NNW,338,6.3,12.0,38,0.00,FEW,,0.00,142.0,WeatherDisplay:10.37,2013-07-15 13:26:00,
2013-07-15 15:31:00,77.3,49.7,29.96,WNW,292,6.7,11.5,38,0.00,FEW,,0.00,654.0,WeatherDisplay:10.37,2013-07-15 13:31:00,
2013-07-15 15:36:00,77.7,50.1,29.96,WSW,253,3.7,13.8,38,0.00,FEW,,0.00,700.0,WeatherDisplay:10.37,2013-07-15 13:36:00,
2013-07-15 15:41:00,78.1,51.1,29.95,NW,304,4.3,13.0,39,0.00,CLR,,0.00,779.0,WeatherDisplay:10.37,2013-07-15 13:41:00,
2013-07-15 15:46:00,78.2,50.5,29.95,NNE,32,3.0,11.5,38,0.00,CLR,,0.00,749.0,WeatherDisplay:10.37,2013-07-15 13:46:00,
2013-07-15 15:51:00,78.3,50.6,29.95,North,350,7.1,10.4,38,0.00,CLR,,0.00,332.0,WeatherDisplay:10.37,2013-07-15 13:51:00,
2013-07-15 15:56:00,78.1,50.4,29.95,WNW,303,5.8,15.0,38,0.00,FEW,,0.00,241.0,WeatherDisplay:10.37,2013-07-15 13:56:00,
2013-07-15 16:01:00,77.8,50.9,29.95,NE,50,4.6,11.5,39,0.00,SCT,,0.00,253.0,WeatherDisplay:10.37,2013-07-15 14:01:00,
2013-07-15 16:06:00,77.5,52.6,29.95,NW,308,7.1,13.0,42,0.00,BKN,,0.00,183.0,WeatherDisplay:10.37,2013-07-15 14:06:00,
2013-07-15 16:11:00,77.1,53.5,29.95,NNE,20,3.5,9.2,44,0.00,BKN,,0.00,174.0,WeatherDisplay:10.37,2013-07-15 14:11:00,
2013-07-15 16:16:00,76.8,53.2,29.96,North,355,5.3,9.2,44,0.00,BKN,,0.00,156.0,WeatherDisplay:10.37,2013-07-15 14:16:00,
2013-07-15 16:22:00,76.2,53.9,29.96,NNW,341,3.5,11.5,46,0.00,BKN,,0.00,163.0,WeatherDisplay:10.37,2013-07-15 14:22:00,
2013-07-15 16:27:00,76.0,54.3,29.95,North,9,7.2,15.0,47,0.00,BKN,,0.00,232.0,WeatherDisplay:10.37,2013-07-15 14:27:00,
2013-07-15 16:32:00,76.5,54.8,29.95,NE,38,5.6,10.4,47,0.00,SCT,,0.00,610.0,WeatherDisplay:10.37,2013-07-15 14:32:00,
2013-07-15 16:37:00,76.8,54.5,29.96,North,355,9.2,15.0,46,0.00,CLR,,0.00,570.0,WeatherDisplay:10.37,2013-07-15 14:37:00,
2013-07-15 16:42:00,76.6,54.9,29.96,North,355,6.9,11.5,47,0.00,FEW,,0.00,446.0,WeatherDisplay:10.37,2013-07-15 14:42:00,
2013-07-15 16:47:00,76.4,54.1,29.96,NW,320,8.6,14.0,46,0.00,SCT,,0.00,132.0,WeatherDisplay:10.37,2013-07-15 14:47:00,
2013-07-15 16:52:00,75.9,53.6,29.96,NNW,327,4.9,13.0,46,0.00,BKN,,0.00,104.0,WeatherDisplay:10.37,2013-07-15 14:52:00,
2013-07-15 16:57:00,75.6,53.4,29.96,NNW,348,4.2,9.2,46,0.00,BKN,,0.00,455.0,WeatherDisplay:10.37,2013-07-15 14:57:00,
2013-07-15 17:03:00,75.6,53.9,29.96,North,5,8.8,14.0,47,0.00,SCT,,0.00,113.0,WeatherDisplay:10.37,2013-07-15 15:03:00,
2013-07-15 17:08:00,75.4,53.8,29.97,NNE,28,6.7,11.5,47,0.00,BKN,,0.00,120.0,WeatherDisplay:10.37,2013-07-15 15:08:00,
2013-07-15 17:13:00,75.0,52.8,29.96,NNE,17,4.7,10.4,46,0.00,BKN,,0.00,127.0,WeatherDisplay:10.37,2013-07-15 15:13:00,
2013-07-15 17:19:00,75.0,52.2,29.96,NNW,346,7.9,16.1,45,0.00,SCT,,0.00,120.0,WeatherDisplay:10.37,2013-07-15 15:19:00,
2013-07-15 17:24:00,75.2,52.4,29.96,NNE,26,6.4,12.7,45,0.00,SCT,,0.00,97.0,WeatherDisplay:10.37,2013-07-15 15:24:00,
2013-07-15 17:30:00,75.0,50.3,29.96,NW,321,9.6,15.0,42,0.00,SCT,,0.00,431.0,WeatherDisplay:10.37,2013-07-15 15:30:00,
2013-07-15 17:36:00,74.9,49.6,29.97,NW,316,9.3,15.0,41,0.00,SCT,,0.00,404.0,WeatherDisplay:10.37,2013-07-15 15:36:00,
2013-07-15 17:41:00,74.8,50.2,29.96,NW,324,3.6,11.5,42,0.00,SCT,,0.00,137.0,WeatherDisplay:10.37,2013-07-15 15:41:00,
2013-07-15 17:46:00,74.7,51.3,29.96,North,350,1.9,8.1,44,0.00,SCT,,0.00,153.0,WeatherDisplay:10.37,2013-07-15 15:46:00,
2013-07-15 17:51:00,74.7,51.3,29.97,NW,304,5.7,10.4,44,0.00,BKN,,0.00,137.0,WeatherDisplay:10.37,2013-07-15 15:51:00,
2013-07-15 17:56:00,74.4,51.7,29.97,NNE,17,5.2,12.7,45,0.00,SCT,,0.00,276.0,WeatherDisplay:10.37,2013-07-15 15:56:00,
2013-07-15 18:01:00,74.3,52.2,29.97,NE,51,3.5,11.5,46,0.00,SCT,,0.00,323.0,WeatherDisplay:10.37,2013-07-15 16:01:00,
2013-07-15 18:06:00,74.5,51.8,29.97,NNE,19,6.0,12.7,45,0.00,CLR,,0.00,111.0,WeatherDisplay:10.37,2013-07-15 16:06:00,
2013-07-15 18:11:00,74.3,51.6,29.97,NW,322,8.9,13.0,45,0.00,FEW,,0.00,274.0,WeatherDisplay:10.37,2013-07-15 16:11:00,
2013-07-15 18:16:00,74.2,50.9,29.97,NW,313,7.2,10.4,44,0.00,FEW,,0.00,262.0,WeatherDisplay:10.37,2013-07-15 16:16:00,
2013-07-15 18:21:00,74.3,51.0,29.97,NNE,14,5.8,10.4,44,0.00,FEW,,0.00,77.0,WeatherDisplay:10.37,2013-07-15 16:21:00,
2013-07-15 18:26:00,73.9,50.6,29.97,NNW,342,4.9,8.1,44,0.00,SCT,,0.00,83.0,WeatherDisplay:10.37,2013-07-15 16:26:00,
2013-07-15 18:31:00,73.5,50.2,29.97,NNE,15,6.9,12.7,44,0.00,SCT,,0.00,213.0,WeatherDisplay:10.37,2013-07-15 16:31:00,
2013-07-15 18:36:00,73.3,50.7,29.97,NNW,337,6.5,12.0,45,0.00,SCT,,0.00,77.0,WeatherDisplay:10.37,2013-07-15 16:36:00,
2013-07-15 18:41:00,73.1,51.1,29.98,North,349,4.5,7.0,46,0.00,SCT,,0.00,72.0,WeatherDisplay:10.37,2013-07-15 16:41:00,
2013-07-15 18:46:00,72.8,50.8,29.98,North,5,9.1,16.1,46,0.00,BKN,,0.00,72.0,WeatherDisplay:10.37,2013-07-15 16:46:00,
2013-07-15 18:51:00,72.6,50.6,29.98,North,10,6.5,11.5,46,0.00,BKN,,0.00,91.0,WeatherDisplay:10.37,2013-07-15 16:51:00,
2013-07-15 18:57:00,72.5,50.5,29.98,NE,46,6.0,10.4,46,0.00,FEW,,0.00,174.0,WeatherDisplay:10.37,2013-07-15 16:57:00,
2013-07-15 19:03:00,72.4,50.4,29.98,North,9,6.8,12.0,46,0.00,FEW,,0.00,70.0,WeatherDisplay:10.37,2013-07-15 17:03:00,
2013-07-15 19:08:00,72.2,50.3,29.99,NNE,30,6.1,12.0,46,0.00,FEW,,0.00,142.0,WeatherDisplay:10.37,2013-07-15 17:08:00,
2013-07-15 19:13:00,72.1,50.2,29.98,NNE,19,5.7,11.5,46,0.00,CLR,,0.00,123.0,WeatherDisplay:10.37,2013-07-15 17:13:00,
2013-07-15 19:18:00,72.0,50.1,29.99,North,5,4.0,9.2,46,0.00,FEW,,0.00,53.0,WeatherDisplay:10.37,2013-07-15 17:18:00,
2013-07-15 19:23:00,71.8,49.9,29.98,NNW,346,5.2,9.2,46,0.00,SCT,,0.00,95.0,WeatherDisplay:10.37,2013-07-15 17:23:00,
2013-07-15 19:30:00,71.5,50.2,29.99,North,10,4.5,8.1,47,0.00,SCT,,0.00,81.0,WeatherDisplay:10.37,2013-07-15 17:30:00,
2013-07-15 19:35:00,71.3,50.0,29.99,NE,38,6.1,11.5,47,0.00,FEW,,0.00,72.0,WeatherDisplay:10.37,2013-07-15 17:35:00,
2013-07-15 19:40:00,71.1,49.8,29.99,NNW,333,7.1,9.0,47,0.00,SCT,,0.00,63.0,WeatherDisplay:10.37,2013-07-15 17:40:00,
2013-07-15 19:45:00,70.9,49.7,29.99,North,5,6.2,10.4,47,0.00,SCT,,0.00,49.0,WeatherDisplay:10.37,2013-07-15 17:45:00,
2013-07-15 19:50:00,70.8,49.6,29.99,NE,35,1.9,6.9,47,0.00,SCT,,0.00,37.0,WeatherDisplay:10.37,2013-07-15 17:50:00,
2013-07-15 19:55:00,70.6,50.0,30.00,North,355,3.2,7.0,48,0.00,SCT,,0.00,32.0,WeatherDisplay:10.37,2013-07-15 17:55:00,
2013-07-15 20:00:00,70.4,49.8,30.00,NNE,31,3.2,7.0,48,0.00,SCT,,0.00,25.0,WeatherDisplay:10.37,2013-07-15 18:00:00,
2013-07-15 20:06:00,70.1,50.0,30.00,NNE,19,2.0,6.9,49,0.00,SCT,,0.00,23.0,WeatherDisplay:10.37,2013-07-15 18:06:00,
2013-07-15 20:11:00,69.9,49.9,30.00,North,11,2.3,5.8,49,0.00,SCT,,0.00,23.0,WeatherDisplay:10.37,2013-07-15 18:11:00,
2013-07-15 20:16:00,69.7,49.7,30.01,NNW,332,1.5,4.0,49,0.00,SCT,,0.00,21.0,WeatherDisplay:10.37,2013-07-15 18:16:00,
2013-07-15 20:21:00,69.4,49.9,30.01,North,355,0.2,2.3,50,0.00,SCT,,0.00,14.0,WeatherDisplay:10.37,2013-07-15 18:21:00,
2013-07-15 20:26:00,69.2,49.8,30.01,NNW,335,1.2,4.0,50,0.00,SCT,,0.00,9.0,WeatherDisplay:10.37,2013-07-15 18:26:00,
2013-07-15 20:31:00,69.0,50.1,30.01,NNW,335,0.7,2.3,51,0.00,SCT,,0.00,7.0,WeatherDisplay:10.37,2013-07-15 18:31:00,
2013-07-15 20:36:00,68.6,49.7,30.02,NNW,346,1.2,3.5,51,0.00,SCT,,0.00,0.0,WeatherDisplay:10.37,2013-07-15 18:36:00,
2013-07-15 20:41:00,68.4,49.6,30.02,NNE,17,2.4,5.0,51,0.00,SCT,,0.00,0.0,WeatherDisplay:10.37,2013-07-15 18:41:00,
2013-07-15 20:46:00,68.0,49.7,30.02,North,355,2.0,3.5,52,0.00,SCT,,0.00,0.0,WeatherDisplay:10.37,2013-07-15 18:46:00,
2013-07-15 20:51:00,67.7,49.4,30.02,North,5,1.3,3.5,52,0.00,SCT,,0.00,0.0,WeatherDisplay:10.37,2013-07-15 18:51:00,
2013-07-15 20:56:00,67.4,49.2,30.03,NW,326,0.9,6.0,52,0.00,SCT,,0.00,0.0,WeatherDisplay:10.37,2013-07-15 18:56:00,
2013-07-15 21:01:00,67.1,48.4,30.03,NNW,342,2.1,4.6,51,0.00,SCT,,0.00,0.0,WeatherDisplay:10.37,2013-07-15 19:01:00,
2013-07-15 21:06:00,66.9,48.2,30.03,NNW,343,3.2,5.8,51,0.00,SCT,,0.00,0.0,WeatherDisplay:10.37,2013-07-15 19:06:00,
2013-07-15 21:11:00,66.8,48.1,30.03,NNW,343,3.2,7.0,51,0.00,SCT,,0.00,0.0,WeatherDisplay:10.37,2013-07-15 19:11:00,
2013-07-15 21:16:00,66.6,47.9,30.04,North,5,0.7,5.8,51,0.00,SCT,,0.00,0.0,WeatherDisplay:10.37,2013-07-15 19:16:00,
2013-07-15 21:22:00,66.5,48.3,30.04,NW,323,1.7,5.0,52,0.00,SCT,,0.00,0.0,WeatherDisplay:10.37,2013-07-15 19:22:00,
2013-07-15 21:27:00,66.3,48.1,30.04,NNW,330,1.8,4.0,52,0.00,SCT,,0.00,0.0,WeatherDisplay:10.37,2013-07-15 19:27:00,
2013-07-15 21:32:00,66.2,48.0,30.04,NNW,334,1.1,6.0,52,0.00,SCT,,0.00,0.0,WeatherDisplay:10.37,2013-07-15 19:32:00,
2013-07-15 21:37:00,66.1,48.0,30.05,North,5,0.9,3.5,52,0.00,SCT,,0.00,0.0,WeatherDisplay:10.37,2013-07-15 19:37:00,
2013-07-15 21:42:00,65.9,48.3,30.05,North,355,1.2,4.0,53,0.00,SCT,,0.00,0.0,WeatherDisplay:10.37,2013-07-15 19:42:00,
2013-07-15 21:47:00,65.7,48.1,30.05,NNE,12,0.8,3.5,53,0.00,SCT,,0.00,0.0,WeatherDisplay:10.37,2013-07-15 19:47:00,
2013-07-15 21:52:00,65.4,47.8,30.05,NNW,346,1.9,4.0,53,0.00,SCT,,0.00,0.0,WeatherDisplay:10.37,2013-07-15 19:52:00,
2013-07-15 21:57:00,65.1,48.0,30.05,North,355,0.1,3.5,54,0.00,SCT,,0.00,0.0,WeatherDisplay:10.37,2013-07-15 19:57:00,
2013-07-15 22:03:00,64.8,48.2,30.06,North,355,0.8,2.3,55,0.00,SCT,,0.00,0.0,WeatherDisplay:10.37,2013-07-15 20:03:00,
2013-07-15 22:08:00,64.5,48.0,30.05,North,355,0.1,1.2,55,0.00,SCT,,0.00,0.0,WeatherDisplay:10.37,2013-07-15 20:08:00,
2013-07-15 22:13:00,64.2,47.7,30.06,NNE,27,0.5,3.5,55,0.00,SCT,,0.00,0.0,WeatherDisplay:10.37,2013-07-15 20:13:00,
2013-07-15 22:18:00,63.9,47.9,30.06,NNE,22,0.8,2.3,56,0.00,SCT,,0.00,0.0,WeatherDisplay:10.37,2013-07-15 20:18:00,
2013-07-15 22:23:00,63.6,48.1,30.06,NNE,22,0.0,1.2,57,0.00,SCT,,0.00,0.0,WeatherDisplay:10.37,2013-07-15 20:23:00,
2013-07-15 22:28:00,63.3,48.3,30.06,NNE,21,0.1,2.3,58,0.00,SCT,,0.00,0.0,WeatherDisplay:10.37,2013-07-15 20:28:00,
2013-07-15 22:33:00,63.1,48.5,30.06,NNE,19,0.0,2.3,59,0.00,SCT,,0.00,0.0,WeatherDisplay:10.37,2013-07-15 20:33:00,
2013-07-15 22:39:00,62.7,48.2,30.06,NNE,19,0.0,1.2,59,0.00,SCT,,0.00,0.0,WeatherDisplay:10.37,2013-07-15 20:39:00,
2013-07-15 22:44:00,62.4,48.3,30.06,NNE,19,0.0,0.0,60,0.00,SCT,,0.00,0.0,WeatherDisplay:10.37,2013-07-15 20:44:00,
2013-07-15 22:50:00,62.0,48.0,30.06,NNE,19,0.0,0.0,60,0.00,SCT,,0.00,0.0,WeatherDisplay:10.37,2013-07-15 20:50:00,
2013-07-15 22:55:00,61.7,48.1,30.06,NNE,19,0.0,0.0,61,0.00,SCT,,0.00,0.0,WeatherDisplay:10.37,2013-07-15 20:55:00,
2013-07-15 23:00:00,61.4,48.3,30.07,NNE,19,0.0,0.0,62,0.00,SCT,,0.00,0.0,WeatherDisplay:10.37,2013-07-15 21:00:00,
2013-07-15 23:05:00,61.2,48.9,30.07,NNE,19,0.1,1.2,64,0.00,SCT,,0.00,0.0,WeatherDisplay:10.37,2013-07-15 21:05:00,
2013-07-15 23:10:00,60.9,48.6,30.07,NNE,22,0.3,1.0,64,0.00,SCT,,0.00,0.0,WeatherDisplay:10.37,2013-07-15 21:10:00,
2013-07-15 23:15:00,60.7,48.4,30.07,NNE,22,0.0,1.2,64,0.00,SCT,,0.00,0.0,WeatherDisplay:10.37,2013-07-15 21:15:00,
2013-07-15 23:20:00,60.5,48.7,30.07,NNE,22,0.0,0.0,65,0.00,SCT,,0.00,0.0,WeatherDisplay:10.37,2013-07-15 21:20:00,
2013-07-15 23:25:00,60.3,48.9,30.08,NNE,22,0.0,0.0,66,0.00,SCT,,0.00,0.0,WeatherDisplay:10.37,2013-07-15 21:25:00,
2013-07-15 23:30:00,60.1,49.1,30.08,NNE,22,0.0,0.0,67,0.00,SCT,,0.00,0.0,WeatherDisplay:10.37,2013-07-15 21:30:00,
2013-07-15 23:35:00,60.0,49.0,30.08,NNE,22,0.0,1.2,67,0.00,SCT,,0.00,0.0,WeatherDisplay:10.37,2013-07-15 21:35:00,
2013-07-15 23:40:00,59.8,49.3,30.08,NNE,22,0.0,1.0,68,0.00,SCT,,0.00,0.0,WeatherDisplay:10.37,2013-07-15 21:40:00,
2013-07-15 23:46:00,59.7,49.1,30.08,NNE,21,0.0,0.0,68,0.00,SCT,,0.00,0.0,WeatherDisplay:10.37,2013-07-15 21:46:00,
2013-07-15 23:51:00,59.6,49.0,30.07,NNE,21,0.0,0.0,68,0.00,SCT,,0.00,0.0,WeatherDisplay:10.37,2013-07-15 21:51:00,
2013-07-15 23:56:00,59.6,49.0,30.08,NNE,21,0.0,1.2,68,0.00,SCT,,0.00,0.0,WeatherDisplay:10.37,2013-07-15 21:56:00,